SCP
0 0 0 0 0 0 0 0 0 1 2 3 2 2 1 1 1 0 0 0 0 0 0 0 0 0 0 0 0 0 0 0 0 0 0 0 0 0 0 0 0 0 0
0 0 0 0 0 0 0 0 0 0 1 3 3 2 2 1 1 1 1 0 0 0 0 0 0 0 0 0 0 0 0 0 0 0 0 0 0 0 0 0 0 0 0
0 0 0 0 0 0 0 0 0 0 0 1 3 2 2 1 1 1 0 0 0 0 0 0 0 0 0 0 0 0 1 0 0 0 0 0 0 0 0 0 0 0 0
0 0 0 0 0 0 0 0 0 0 0 0 2 3 3 3 1 1 1 1 0 0 0 0 1 1 1 1 1 0 0 0 0 0 0 0 0 0 0 0 0 0 0
0 0 0 0 0 0 0 0 0 0 0 0 1 3 3 3 2 1 1 1 1 0 0 0 1 1 1 1 1 1 0 0 0 0 0 0 0 0 0 0 0 0 0
0 0 0 0 0 0 0 0 0 0 0 0 0 2 2 3 3 1 1 1 1 1 0 0 0 1 1 1 1 1 0 0 0 0 0 0 0 0 0 0 0 0 0
0 0 0 0 0 0 0 0 0 0 0 0 0 1 2 1 1 1 1 1 1 1 0 0 1 0 1 1 1 1 0 0 0 0 0 0 0 0 0 0 0 0 0
0 0 0 0 0 0 0 0 0 0 0 0 0 1 1 1 2 2 1 1 1 1 0 0 1 0 1 1 1 1 0 0 0 0 0 0 0 0 0 0 0 0 0
0 0 0 0 0 0 0 0 0 0 0 0 0 1 1 0 1 2 1 1 1 1 0 1 1 1 1 0 0 0 0 0 0 0 0 0 0 0 0 0 0 0 0
0 0 0 0 0 0 0 0 0 0 0 0 0 0 1 1 1 1 1 1 1 1 1 1 1 0 0 0 0 0 0 0 0 0 0 0 0 0 0 0 0 0 0
0 0 0 0 0 0 0 0 0 -0 0 0 0 0 0 0 1 1 1 1 1 1 1 0 0 1 0 0 0 0 0 0 0 0 0 0 0 0 0 0 0 0 0
0 0 0 0 0 0 0 0 0 0 -0 0 0 1 0 0 1 1 1 1 1 1 0 0 0 0 0 0 0 0 0 0 0 0 0 0 0 0 0 0 0 0 0
0 0 0 0 0 0 0 0 0 0 0 0 0 0 0 0 0 1 1 1 1 0 1 0 0 0 0 0 0 0 0 0 0 0 0 0 0 0 0 0 0 0 0
0 0 0 0 0 0 0 0 0 0 0 0 0 0 0 0 0 1 1 1 1 0 0 1 0 0 0 0 0 0 0 0 0 0 0 0 0 0 0 0 0 0 0
0 0 0 0 0 0 0 0 0 0 0 0 0 0 0 0 0 0 1 0 0 1 0 0 0 0 0 0 0 0 0 0 0 0 0 0 0 0 0 0 0 0 0
0 0 0 0 0 0 0 0 0 0 0 0 -0 0 0 0 0 0 0 0 0 0 0 0 0 0 0 0 0 0 0 0 0 0 0 0 0 0 0 0 0 0 0
0 0 0 0 0 0 0 0 0 0 0 0 0 0 0 -0 -0 0 0 0 0 0 0 0 0 0 0 0 0 0 0 0 0 0 0 0 0 0 0 0 0 0 0
0 0 0 0 0 0 0 0 0 0 0 0 0 -0 -0 -0 -0 0 0 0 0 0 0 0 0 0 0 0 0 0 0 0 0 0 0 0 0 0 0 0 0 0 0
0 0 0 0 0 0 0 0 0 0 0 0 0 0 -0 -0 -0 0 0 0 0 0 0 0 0 0 0 0 0 0 0 0 0 0 0 0 0 0 0 0 0 0 0
0 0 0 0 0 0 0 0 0 0 0 0 0 0 -0 -0 -0 0 0 0 0 -0 -0 0 0 0 0 0 0 0 0 0 0 0 0 0 0 0 0 0 0 0 0
0 0 0 0 0 0 0 0 0 0 0 0 0 0 -0 -0 0 0 0 0 0 0 0 0 0 0 0 0 0 0 0 0 0 0 0 0 0 0 0 0 0 0 0
0 0 0 0 0 0 0 -0 0 -0 0 0 0 0 0 0 0 0 0 0 0 0 0 0 0 0 0 0 0 0 0 0 0 0 0 0 0 0 0 0 0 0 0
0 0 0 0 0 0 0 -0 -0 -0 0 0 0 0 0 0 0 0 0 0 0 0 0 0 0 0 0 0 0 0 0 0 0 0 0 0 0 0 0 0 0 0 0
0 0 0 -0 -0 -0 -0 0 0 0 0 0 0 0 0 0 0 0 0 0 0 0 0 0 0 0 0 0 0 0 0 0 0 0 0 0 0 0 0 0 0 0 0
0 0 -0 -0 -0 -0 -0 0 0 0 0 0 0 0 0 0 0 0 0 0 0 0 0 0 0 0 0 0 0 0 0 0 0 0 0 0 0 0 0 0 0 0 0
0 -0 -0 -0 0 0 0 0 0 0 0 0 0 0 0 0 0 0 0 0 0 0 0 0 0 0 0 0 0 0 0 0 0 0 0 0 0 0 0 0 0 0 0
Wind_Speed_500mb
45 48 47 43 44 44 46 44 45 43 49 52 55 57 60 56 67 68 72 64 62 59 66 72 64 62 62 57 54 48 41 36 33 32 33 28 27 24 20 14 11 12 8
50 39 33 31 37 35 42 40 49 50 52 51 52 54 61 65 58 77 66 79 76 69 67 67 72 65 64 60 61 52 48 43 38 38 35 25 29 29 26 23 19 18 12
46 30 26 26 20 20 24 24 36 46 51 51 54 52 57 62 61 66 80 71 69 76 76 68 71 69 67 60 67 59 55 51 45 42 32 17 20 35 35 34 27 25 17
28 26 26 21 18 21 22 25 30 37 48 54 59 64 63 70 70 67 74 88 71 75 81 78 68 71 68 69 69 63 58 52 52 49 48 42 20 21 22 33 34 29 22
16 17 19 17 23 24 25 28 34 39 41 50 66 72 69 72 71 69 68 76 86 95 79 77 66 70 75 74 72 67 63 58 55 56 54 52 29 26 21 30 39 34 26
4 4 7 17 22 19 17 22 24 28 35 41 50 74 82 78 72 74 70 75 78 95 90 78 84 74 84 74 74 72 65 60 56 54 47 53 50 41 35 28 36 37 32
24 17 12 5 12 19 15 23 31 37 28 30 35 47 73 69 69 72 72 67 76 81 98 95 85 87 87 81 75 75 68 63 59 55 46 36 40 36 32 33 33 39 39
8 10 10 13 14 13 16 25 29 33 29 31 40 46 47 62 74 68 69 66 76 85 84 90 92 86 86 83 74 76 71 61 60 58 51 44 43 37 34 33 32 39 45
18 12 12 11 18 26 32 36 46 45 36 35 45 48 50 57 65 75 69 65 76 81 93 99 98 91 85 85 80 76 68 62 59 57 50 50 51 41 32 32 29 34 36
38 41 36 28 24 31 34 33 35 38 51 50 53 52 57 55 56 70 71 68 74 82 83 87 102 89 93 87 83 77 74 64 58 56 58 57 54 42 34 32 32 33 37
46 36 30 31 32 37 40 46 58 64 58 53 57 44 54 53 53 59 69 68 67 77 89 100 89 94 89 92 85 82 76 63 61 59 61 62 53 38 34 31 28 28 33
50 34 25 20 23 33 43 53 59 51 67 59 55 41 49 47 45 60 67 67 69 75 73 88 90 95 86 94 87 81 73 67 62 65 67 62 51 38 34 28 24 22 23
20 20 16 20 31 38 45 45 49 53 61 56 43 34 44 45 46 58 64 59 71 79 92 89 90 89 97 86 79 78 72 68 64 67 72 57 49 41 35 29 25 24 26
10 15 22 28 35 44 51 51 47 54 52 56 51 41 32 39 43 52 64 56 68 87 109 101 103 96 86 79 83 77 72 65 61 65 60 54 46 41 36 28 26 32 35
20 28 34 36 38 45 47 52 54 56 52 55 54 50 42 38 52 48 64 54 61 90 113 97 96 95 92 93 89 82 73 69 66 62 58 53 46 38 34 30 34 36 37
30 27 24 30 38 46 53 57 58 60 58 64 64 60 49 43 48 49 60 59 60 97 92 98 102 96 98 95 94 85 75 73 70 65 61 56 49 42 34 31 30 31 36
26 30 33 38 53 59 53 52 56 59 63 74 81 73 58 51 50 44 48 55 58 97 90 97 95 95 97 97 92 81 77 74 65 62 64 59 49 42 40 36 31 32 25
37 43 57 60 63 61 58 52 52 59 74 80 71 60 53 53 53 49 42 51 53 82 91 95 97 90 94 95 86 78 72 65 59 59 56 52 49 44 41 35 34 34 31
65 63 66 68 71 56 54 51 57 65 76 77 67 63 54 52 51 44 40 50 48 81 78 108 97 89 76 78 83 76 67 65 58 56 50 46 45 44 38 35 38 40 40
77 80 67 58 51 56 59 62 68 71 85 77 63 59 52 52 47 44 38 52 43 56 96 102 98 91 83 79 79 75 72 66 63 58 50 46 46 43 39 36 42 47 46
74 64 54 54 62 69 79 83 83 79 79 68 67 61 54 55 46 43 38 50 48 38 82 102 103 84 87 84 79 73 67 70 69 65 61 53 47 42 41 36 41 41 47
63 62 63 78 90 90 89 87 75 62 63 62 57 54 54 52 45 43 39 50 63 65 50 85 89 84 82 79 77 66 64 64 65 68 63 56 51 45 43 42 42 46 47
62 73 82 94 94 84 81 79 70 60 62 61 56 49 46 42 45 41 42 59 61 64 69 86 88 92 91 85 73 71 58 51 58 58 58 54 53 48 44 44 47 51 46
84 81 88 87 83 78 77 72 62 57 62 63 52 42 42 37 39 35 40 59 69 78 85 89 99 105 103 100 86 67 60 50 53 57 58 56 53 51 48 47 51 50 43
82 79 84 84 86 79 76 67 57 45 49 51 49 43 41 36 40 40 46 67 80 92 90 102 112 117 111 101 83 76 81 71 68 68 63 61 62 61 59 57 53 50 44
76 76 75 77 81 71 67 57 41 39 43 46 46 41 38 39 41 42 53 65 72 72 74 77 82 89 90 96 91 86 73 67 68 66 68 68 70 71 69 61 61 52 50
Wind_Direction_500mb
257 250 246 248 240 231 230 234 239 246 252 254 259 259 260 268 254 244 244 245 239 231 231 230 227 221 226 223 227 230 223 211 208 205 199 203 220 239 254 244 270 252 266
264 247 222 246 223 231 235 243 241 240 244 253 257 263 267 264 267 243 248 247 244 239 236 234 228 224 226 217 226 224 212 215 214 207 209 203 216 219 226 230 236 241 256
256 219 220 197 216 252 258 254 251 249 252 253 254 258 267 265 265 252 243 247 241 237 232 239 230 225 227 222 223 222 224 226 216 221 213 199 218 212 219 224 228 229 252
210 214 203 232 247 256 260 260 261 262 257 254 253 257 266 266 268 266 253 241 243 237 228 229 235 229 226 221 223 226 229 234 226 217 220 235 221 185 193 208 216 225 239
187 215 233 231 232 233 243 258 276 283 285 267 261 263 260 270 272 267 257 256 244 239 223 222 227 235 227 222 228 230 232 230 233 229 226 225 210 206 194 194 204 210 212
120 123 187 201 200 226 242 259 282 321 309 295 267 256 259 262 269 265 258 254 254 243 237 231 248 238 229 225 227 232 230 228 234 229 230 232 217 215 210 200 197 204 193
51 37 7 349 260 261 274 284 281 282 299 316 316 285 260 261 269 270 265 261 256 258 242 237 219 225 227 227 229 231 224 228 231 224 223 215 222 220 196 189 183 182 183
49 23 8 348 317 317 307 303 299 306 293 299 300 295 287 273 265 262 262 259 259 258 252 221 223 218 226 227 226 223 224 224 223 222 221 215 219 217 208 196 191 168 173
287 307 310 320 305 295 298 289 285 283 286 295 299 307 291 290 264 255 263 257 256 255 248 242 222 222 224 223 222 221 221 220 217 218 219 217 217 221 218 214 223 210 182
252 261 256 257 265 278 288 296 298 287 278 286 290 293 295 291 268 257 257 260 256 249 239 226 218 225 219 223 220 222 221 216 215 214 214 214 221 226 225 218 213 207 215
254 226 230 255 267 275 284 295 299 301 294 292 288 298 294 295 278 258 258 261 256 243 239 224 219 198 206 222 215 217 218 214 213 212 216 219 223 220 214 206 209 207 206
257 226 227 235 261 281 293 297 300 303 305 299 292 293 294 302 285 256 259 258 251 231 206 213 202 200 215 217 216 217 217 214 208 211 214 213 215 211 205 201 200 204 199
194 195 225 265 279 290 291 293 297 303 306 297 296 288 307 305 289 260 254 254 245 236 216 190 187 206 218 213 219 221 217 210 207 208 208 210 210 204 196 193 194 195 185
219 247 265 274 286 291 294 296 295 306 299 300 290 288 299 306 284 255 251 248 238 228 196 196 200 201 206 209 223 222 213 204 203 202 207 208 206 204 196 189 184 180 183
262 270 263 271 280 289 295 296 299 303 302 304 300 291 295 295 307 254 254 243 239 221 205 197 198 197 201 215 218 217 204 200 195 196 198 201 202 201 203 195 185 179 180
261 259 261 279 290 293 298 302 302 306 295 300 302 294 286 288 298 273 247 240 230 211 189 198 192 196 208 216 219 208 199 198 196 191 191 193 194 194 197 194 196 196 191
304 288 280 291 299 302 294 291 300 300 299 298 298 291 286 281 285 285 250 237 226 205 194 197 197 201 213 216 211 198 197 197 197 195 189 186 187 192 190 184 183 183 187
299 292 294 295 297 296 286 280 289 291 300 301 295 289 274 270 282 296 249 229 218 211 207 208 205 209 217 210 201 195 195 197 194 194 193 188 185 190 193 186 185 190 193
297 294 296 289 298 287 281 285 291 295 304 296 292 289 271 263 278 290 245 225 196 220 199 209 205 207 199 198 197 192 190 190 190 191 188 190 191 192 192 190 184 174 165
295 299 299 293 282 286 290 294 295 298 296 292 290 287 273 267 270 289 256 231 210 231 219 212 208 199 194 195 197 191 186 186 185 187 185 191 195 192 186 185 182 172 165
295 291 289 285 290 292 297 295 295 290 292 284 284 280 271 268 264 286 254 214 201 208 204 200 202 195 190 189 194 187 188 190 185 184 181 180 187 187 176 176 176 173 157
290 288 285 288 292 293 295 292 290 291 285 281 279 272 267 261 262 274 251 222 212 209 235 205 182 186 190 189 190 190 196 194 192 185 182 178 180 182 171 165 166 164 159
288 289 292 294 293 293 292 289 289 283 281 277 277 263 263 261 264 255 246 213 217 210 213 209 188 185 184 185 189 189 192 198 195 191 187 185 180 180 170 170 172 170 167
296 296 296 297 294 293 291 289 286 274 272 276 268 254 254 255 263 258 236 221 219 212 207 198 193 186 184 185 189 190 186 189 194 188 186 183 183 182 178 178 177 178 177
293 293 290 291 291 296 292 290 284 275 270 265 255 246 247 253 254 247 228 208 210 214 204 202 196 189 191 192 196 199 186 184 191 186 184 184 182 182 186 182 182 183 182
295 295 293 292 292 293 291 289 281 273 267 259 243 238 247 256 239 230 212 205 216 219 214 215 209 205 207 199 191 184 183 179 189 189 188 185 183 187 188 189 186 185 180
Wind_Speed_850mb
45 48 47 43 44 44 46 44 45 43 49 52 55 57 60 56 67 68 72 64 62 59 66 72 64 62 62 57 54 48 41 36 33 32 33 28 27 24 20 14 11 12 8
50 39 33 31 37 35 42 40 49 50 52 51 52 54 61 65 58 77 66 79 76 69 67 67 72 65 64 60 61 52 48 43 38 38 35 25 29 29 26 23 19 18 12
46 30 26 26 20 20 24 24 36 46 51 51 54 52 57 62 61 66 80 71 69 76 76 68 71 69 67 60 67 59 55 51 45 42 32 17 20 35 35 34 27 25 17
28 26 26 21 18 21 22 25 30 37 48 54 59 64 63 70 70 67 74 88 71 75 81 78 68 71 68 69 69 63 58 52 52 49 48 42 20 21 22 33 34 29 22
16 17 19 17 23 24 25 28 34 39 41 50 66 72 69 72 71 69 68 76 86 95 79 77 66 70 75 74 72 67 63 58 55 56 54 52 29 26 21 30 39 34 26
4 4 7 17 22 19 17 22 24 28 35 41 50 74 82 78 72 74 70 75 78 95 90 78 84 74 84 74 74 72 65 60 56 54 47 53 50 41 35 28 36 37 32
24 17 12 5 12 19 15 23 31 37 28 30 35 47 73 69 69 72 72 67 76 81 98 95 85 87 87 81 75 75 68 63 59 55 46 36 40 36 32 33 33 39 39
8 10 10 13 14 13 16 25 29 33 29 31 40 46 47 62 74 68 69 66 76 85 84 90 92 86 86 83 74 76 71 61 60 58 51 44 43 37 34 33 32 39 45
18 12 12 11 18 26 32 36 46 45 36 35 45 48 50 57 65 75 69 65 76 81 93 99 98 91 85 85 80 76 68 62 59 57 50 50 51 41 32 32 29 34 36
38 41 36 28 24 31 34 33 35 38 51 50 53 52 57 55 56 70 71 68 74 82 83 87 102 89 93 87 83 77 74 64 58 56 58 57 54 42 34 32 32 33 37
46 36 30 31 32 37 40 46 58 64 58 53 57 44 54 53 53 59 69 68 67 77 89 100 89 94 89 92 85 82 76 63 61 59 61 62 53 38 34 31 28 28 33
50 34 25 20 23 33 43 53 59 51 67 59 55 41 49 47 45 60 67 67 69 75 73 88 90 95 86 94 87 81 73 67 62 65 67 62 51 38 34 28 24 22 23
20 20 16 20 31 38 45 45 49 53 61 56 43 34 44 45 46 58 64 59 71 79 92 89 90 89 97 86 79 78 72 68 64 67 72 57 49 41 35 29 25 24 26
10 15 22 28 35 44 51 51 47 54 52 56 51 41 32 39 43 52 64 56 68 87 109 101 103 96 86 79 83 77 72 65 61 65 60 54 46 41 36 28 26 32 35
20 28 34 36 38 45 47 52 54 56 52 55 54 50 42 38 52 48 64 54 61 90 113 97 96 95 92 93 89 82 73 69 66 62 58 53 46 38 34 30 34 36 37
30 27 24 30 38 46 53 57 58 60 58 64 64 60 49 43 48 49 60 59 60 97 92 98 102 96 98 95 94 85 75 73 70 65 61 56 49 42 34 31 30 31 36
26 30 33 38 53 59 53 52 56 59 63 74 81 73 58 51 50 44 48 55 58 97 90 97 95 95 97 97 92 81 77 74 65 62 64 59 49 42 40 36 31 32 25
37 43 57 60 63 61 58 52 52 59 74 80 71 60 53 53 53 49 42 51 53 82 91 95 97 90 94 95 86 78 72 65 59 59 56 52 49 44 41 35 34 34 31
65 63 66 68 71 56 54 51 57 65 76 77 67 63 54 52 51 44 40 50 48 81 78 108 97 89 76 78 83 76 67 65 58 56 50 46 45 44 38 35 38 40 40
77 80 67 58 51 56 59 62 68 71 85 77 63 59 52 52 47 44 38 52 43 56 96 102 98 91 83 79 79 75 72 66 63 58 50 46 46 43 39 36 42 47 46
74 64 54 54 62 69 79 83 83 79 79 68 67 61 54 55 46 43 38 50 48 38 82 102 103 84 87 84 79 73 67 70 69 65 61 53 47 42 41 36 41 41 47
63 62 63 78 90 90 89 87 75 62 63 62 57 54 54 52 45 43 39 50 63 65 50 85 89 84 82 79 77 66 64 64 65 68 63 56 51 45 43 42 42 46 47
62 73 82 94 94 84 81 79 70 60 62 61 56 49 46 42 45 41 42 59 61 64 69 86 88 92 91 85 73 71 58 51 58 58 58 54 53 48 44 44 47 51 46
84 81 88 87 83 78 77 72 62 57 62 63 52 42 42 37 39 35 40 59 69 78 85 89 99 105 103 100 86 67 60 50 53 57 58 56 53 51 48 47 51 50 43
82 79 84 84 86 79 76 67 57 45 49 51 49 43 41 36 40 40 46 67 80 92 90 102 112 117 111 101 83 76 81 71 68 68 63 61 62 61 59 57 53 50 44
76 76 75 77 81 71 67 57 41 39 43 46 46 41 38 39 41 42 53 65 72 72 74 77 82 89 90 96 91 86 73 67 68 66 68 68 70 71 69 61 61 52 50
Wind_Direction_850mb
257 250 246 248 240 231 230 234 239 246 252 254 259 259 260 268 254 244 244 245 239 231 231 230 227 221 226 223 227 230 223 211 208 205 199 203 220 239 254 244 270 252 266
264 247 222 246 223 231 235 243 241 240 244 253 257 263 267 264 267 243 248 247 244 239 236 234 228 224 226 217 226 224 212 215 214 207 209 203 216 219 226 230 236 241 256
256 219 220 197 216 252 258 254 251 249 252 253 254 258 267 265 265 252 243 247 241 237 232 239 230 225 227 222 223 222 224 226 216 221 213 199 218 212 219 224 228 229 252
210 214 203 232 247 256 260 260 261 262 257 254 253 257 266 266 268 266 253 241 243 237 228 229 235 229 226 221 223 226 229 234 226 217 220 235 221 185 193 208 216 225 239
187 215 233 231 232 233 243 258 276 283 285 267 261 263 260 270 272 267 257 256 244 239 223 222 227 235 227 222 228 230 232 230 233 229 226 225 210 206 194 194 204 210 212
120 123 187 201 200 226 242 259 282 321 309 295 267 256 259 262 269 265 258 254 254 243 237 231 248 238 229 225 227 232 230 228 234 229 230 232 217 215 210 200 197 204 193
51 37 7 349 260 261 274 284 281 282 299 316 316 285 260 261 269 270 265 261 256 258 242 237 219 225 227 227 229 231 224 228 231 224 223 215 222 220 196 189 183 182 183
49 23 8 348 317 317 307 303 299 306 293 299 300 295 287 273 265 262 262 259 259 258 252 221 223 218 226 227 226 223 224 224 223 222 221 215 219 217 208 196 191 168 173
287 307 310 320 305 295 298 289 285 283 286 295 299 307 291 290 264 255 263 257 256 255 248 242 222 222 224 223 222 221 221 220 217 218 219 217 217 221 218 214 223 210 182
252 261 256 257 265 278 288 296 298 287 278 286 290 293 295 291 268 257 257 260 256 249 239 226 218 225 219 223 220 222 221 216 215 214 214 214 221 226 225 218 213 207 215
254 226 230 255 267 275 284 295 299 301 294 292 288 298 294 295 278 258 258 261 256 243 239 224 219 198 206 222 215 217 218 214 213 212 216 219 223 220 214 206 209 207 206
257 226 227 235 261 281 293 297 300 303 305 299 292 293 294 302 285 256 259 258 251 231 206 213 202 200 215 217 216 217 217 214 208 211 214 213 215 211 205 201 200 204 199
194 195 225 265 279 290 291 293 297 303 306 297 296 288 307 305 289 260 254 254 245 236 216 190 187 206 218 213 219 221 217 210 207 208 208 210 210 204 196 193 194 195 185
219 247 265 274 286 291 294 296 295 306 299 300 290 288 299 306 284 255 251 248 238 228 196 196 200 201 206 209 223 222 213 204 203 202 207 208 206 204 196 189 184 180 183
262 270 263 271 280 289 295 296 299 303 302 304 300 291 295 295 307 254 254 243 239 221 205 197 198 197 201 215 218 217 204 200 195 196 198 201 202 201 203 195 185 179 180
261 259 261 279 290 293 298 302 302 306 295 300 302 294 286 288 298 273 247 240 230 211 189 198 192 196 208 216 219 208 199 198 196 191 191 193 194 194 197 194 196 196 191
304 288 280 291 299 302 294 291 300 300 299 298 298 291 286 281 285 285 250 237 226 205 194 197 197 201 213 216 211 198 197 197 197 195 189 186 187 192 190 184 183 183 187
299 292 294 295 297 296 286 280 289 291 300 301 295 289 274 270 282 296 249 229 218 211 207 208 205 209 217 210 201 195 195 197 194 194 193 188 185 190 193 186 185 190 193
297 294 296 289 298 287 281 285 291 295 304 296 292 289 271 263 278 290 245 225 196 220 199 209 205 207 199 198 197 192 190 190 190 191 188 190 191 192 192 190 184 174 165
295 299 299 293 282 286 290 294 295 298 296 292 290 287 273 267 270 289 256 231 210 231 219 212 208 199 194 195 197 191 186 186 185 187 185 191 195 192 186 185 182 172 165
295 291 289 285 290 292 297 295 295 290 292 284 284 280 271 268 264 286 254 214 201 208 204 200 202 195 190 189 194 187 188 190 185 184 181 180 187 187 176 176 176 173 157
290 288 285 288 292 293 295 292 290 291 285 281 279 272 267 261 262 274 251 222 212 209 235 205 182 186 190 189 190 190 196 194 192 185 182 178 180 182 171 165 166 164 159
288 289 292 294 293 293 292 289 289 283 281 277 277 263 263 261 264 255 246 213 217 210 213 209 188 185 184 185 189 189 192 198 195 191 187 185 180 180 170 170 172 170 167
296 296 296 297 294 293 291 289 286 274 272 276 268 254 254 255 263 258 236 221 219 212 207 198 193 186 184 185 189 190 186 189 194 188 186 183 183 182 178 178 177 178 177
293 293 290 291 291 296 292 290 284 275 270 265 255 246 247 253 254 247 228 208 210 214 204 202 196 189 191 192 196 199 186 184 191 186 184 184 182 182 186 182 182 183 182
295 295 293 292 292 293 291 289 281 273 267 259 243 238 247 256 239 230 212 205 216 219 214 215 209 205 207 199 191 184 183 179 189 189 188 185 183 187 188 189 186 185 180